Weather History for Smyrna, TN

Change the Weather History Date:

Monday, April 7, 2014

  Actual Average Record
Temperature  
Mean Temperature 56 °F -  
Max Temperature 66 °F 65 °F 82 °F (2001)
Min Temperature 46 °F 48 °F 24 °F (2007)
Degree Days  
Heating Degree Days 10    
Growing Degree Days 6 (Base 50)    
Moisture  
Dew Point 49 °F    
Average Humidity 86    
Maximum Humidity 100    
Minimum Humidity 67    
Precipitation  
Precipitation 0.01 in - - ()
Sea Level Pressure  
Sea Level Pressure 29.71 in    
Wind  
Wind Speed 10 mph (West)    
Max Wind Speed 25 mph    
Max Gust Speed 32 mph    
Visibility 9 miles    
Events Rain    
Averages and records for this station are not official NWS values.
T = Trace of Precipitation, MM = Missing Value Source: NWS Daily Summary

Daily Weather History Graph

Daily Weather History Graph

Search for Another Location

Airport:

Trip Planner

Search our weather history database for the weather conditions in past years. The results will help you decide how hot, cold, wet, or windy it might be!

Date:

Astronomy

Apr. 07, 2014 Rise Set
Actual Time 6:23 AM CDT 7:13 PM CDT
Civil Twilight 5:57 AM CDT 7:39 PM CDT
Nautical Twilight 5:27 AM CDT 8:09 PM CDT
Astronomical Twilight 4:55 AM CDT 8:41 PM CDT
Moon 12:24 PM CDT (4/7) 1:44 AM CDT (4/7)
Length of Visible Light 13h 41m
Length of Day
12h 49m
First Quarter, 53% of the Moon is Illuminated
Apr 7
First Quarter
Apr 15
Full
Apr 22
Last Quarter
Apr 29
New
May 6
First Quarter

Hourly Weather History & Observations

Time (CDT) Temp. Windchill Dew Point Humidity Pressure Visibility Wind Dir Wind Speed Gust Speed Precip Events Conditions
12:56 AM - - - N/A% - - North - - N/A   Unknown
1:56 AM - - - N/A% - - North - - N/A   Unknown
2:56 AM - - - N/A% - - North - - N/A   Unknown
3:56 AM - - - N/A% - - North - - N/A   Unknown
4:56 AM - - - N/A% - - North - - N/A   Unknown
5:56 AM - - - N/A% - - North - - N/A   Unknown
6:56 AM 55.4 °F - 51.8 °F 88% 29.66 in 10.0 mi ESE 4.6 mph - N/A   Mostly Cloudy
7:56 AM 55.4 °F - 51.8 °F 88% 29.66 in 10.0 mi SE 3.5 mph - N/A   Mostly Cloudy
8:01 AM 55.4 °F - 53.6 °F 94% 29.62 in 10.0 mi ESE 3.5 mph - N/A   Overcast
8:23 AM 55.4 °F - 55.4 °F 100% 29.57 in 10.0 mi ESE 5.8 mph - N/A   Unknown
8:33 AM 55.4 °F - 55.4 °F 100% 29.56 in 10.0 mi SE 5.8 mph - N/A   Overcast
8:56 AM 56.8 °F - 55.9 °F 97% 29.55 in 10.0 mi South 5.8 mph - N/A   Overcast
9:38 AM 60.8 °F - 55.4 °F 82% 29.55 in 10.0 mi South 10.4 mph - N/A   Overcast
9:56 AM 61.0 °F - 55.9 °F 83% 29.55 in 10.0 mi SSW 9.2 mph - N/A   Overcast
11:56 AM 63.9 °F - 59.0 °F 84% 29.54 in 10.0 mi SSW 13.8 mph 23.0 mph N/A   Overcast
12:56 PM 65.8 °F - 61.0 °F 84% 29.54 in 10.0 mi SSW 16.1 mph 23.0 mph N/A   Overcast
1:56 PM 65.8 °F - 59.9 °F 81% 29.53 in 10.0 mi SW 16.1 mph 21.9 mph 0.01 in Rain Light Rain
2:56 PM 59.9 °F - 54.0 °F 81% 29.57 in 10.0 mi WSW 19.6 mph 28.8 mph 0.00 in   Overcast
3:56 PM 57.9 °F - 48.9 °F 72% 29.59 in 10.0 mi WSW 15.0 mph 23.0 mph N/A   Overcast
4:56 PM 57.9 °F - 46.9 °F 67% 29.62 in 10.0 mi WSW 13.8 mph 27.6 mph N/A   Overcast
5:56 PM 54.9 °F - 45.0 °F 69% 29.68 in 10.0 mi West 25.3 mph 32.2 mph N/A   Overcast
6:08 PM 53.6 °F - 44.6 °F 72% 29.69 in 10.0 mi West 18.4 mph 26.5 mph N/A   Overcast
6:56 PM 52.0 °F - 43.9 °F 74% 29.75 in 10.0 mi West 18.4 mph 28.8 mph N/A   Overcast
7:56 PM 50.0 °F - 43.9 °F 79% 29.80 in 10.0 mi West 12.7 mph - N/A   Overcast
8:56 PM 47.8 °F - 45.0 °F 90% 29.84 in 4.0 mi NW 11.5 mph - 0.00 in Rain Light Rain
9:18 PM 46.4 °F 41.5 °F 44.6 °F 93% 29.83 in 3.0 mi NNW 10.4 mph - 0.00 in Rain Light Rain
9:21 PM 46.4 °F 40.7 °F 44.6 °F 93% 29.83 in 3.0 mi NW 12.7 mph - 0.00 in Rain Light Rain
9:30 PM 46.4 °F 42.4 °F 44.6 °F 93% 29.83 in 7.0 mi NW 8.1 mph - 0.00 in Rain Light Rain
9:38 PM 46.4 °F 41.1 °F 44.6 °F 93% 29.83 in 9.0 mi NW 11.5 mph - 0.00 in   Overcast
9:48 PM 46.4 °F 41.5 °F 44.6 °F 93% 29.83 in 10.0 mi WNW 10.4 mph - 0.00 in   Mostly Cloudy
9:56 PM 46.9 °F - 43.9 °F 89% 29.86 in 10.0 mi WNW 11.5 mph - 0.00 in   Overcast
10:03 PM 46.4 °F 41.1 °F 42.8 °F 87% 29.84 in 10.0 mi WNW 11.5 mph - N/A   Overcast
10:34 PM 46.4 °F 41.9 °F 42.8 °F 87% 29.84 in 10.0 mi NW 9.2 mph - N/A   Overcast
10:56 PM 46.9 °F - 43.0 °F 86% 29.88 in 10.0 mi WNW 10.4 mph - N/A   Overcast
11:10 PM 46.4 °F 41.5 °F 42.8 °F 87% 29.85 in 10.0 mi WNW 10.4 mph - N/A   Overcast
11:20 PM 46.4 °F 41.1 °F 42.8 °F 87% 29.85 in 10.0 mi WNW 11.5 mph - N/A   Overcast
11:56 PM 46.9 °F - 41.9 °F 83% 29.88 in 10.0 mi WNW 10.4 mph - N/A   Overcast